Temperature
7 5 5 5 6 7 6 6 6 6 6 6 5 5 4 4 3 3 2 2 2 2 2 3 3 3 4 4 4 4 5 5 5 5 5 5 5 5 5 5 5 5 5 5
5 5 6 6 6 7 6 6 5 6 6 6 4 4 4 3 2 2 1 1 1 1 2 2 2 3 3 3 3 3 4 4 4 4 4 4 4 4 4 4 4 5 5 5
5 6 6 6 6 6 6 5 5 5 5 5 4 3 3 2 2 1 1 1 0 0 1 1 2 2 2 3 3 3 3 3 3 3 3 3 3 3 4 4 4 4 4 4
5 5 6 6 5 5 5 5 5 5 4 3 4 3 3 1 1 0 -0 -0 -0 -0 0 1 1 2 2 2 2 2 2 2 2 2 3 3 3 3 3 3 3 3 3 4
4 5 5 5 5 5 5 5 5 5 4 3 3 3 3 1 0 -0 -1 -1 -1 -0 -0 0 1 1 1 1 1 1 1 2 2 2 2 2 2 2 2 2 3 3 3 3
4 5 5 5 5 5 5 4 4 3 2 3 3 3 3 0 0 -0 -1 -1 -1 -1 -1 -1 -0 -0 0 0 1 1 1 1 1 1 1 1 1 1 2 2 2 2 2 2
4 4 4 4 4 4 4 3 3 3 3 3 3 3 2 0 -0 -1 -1 -2 -2 -2 -2 -2 -1 -1 -1 -0 -0 -0 -0 0 0 0 0 1 1 1 1 1 1 1 1 2
3 3 4 4 4 3 3 3 3 3 3 2 2 2 1 -1 -1 -1 -1 -2 -2 -2 -2 -2 -2 -2 -1 -1 -1 -1 -1 -1 -1 -0 -0 -0 -0 -0 -0 -0 0 0 1 1
2 3 3 3 4 4 3 2 2 2 1 1 1 0 -1 -2 -2 -2 -3 -3 -3 -3 -3 -3 -3 -2 -2 -2 -2 -2 -2 -2 -2 -1 -1 -1 -1 -1 -1 -1 -1 -0 -0 0
2 2 2 2 3 3 3 2 1 1 2 2 2 0 -0 -2 -2 -3 -4 -4 -4 -4 -4 -4 -3 -3 -3 -3 -3 -3 -3 -2 -2 -2 -2 -2 -2 -2 -2 -1 -1 -1 -1 -1
1 1 1 1 1 2 2 1 1 0 0 1 1 1 -1 -2 -2 -3 -4 -4 -4 -4 -4 -4 -4 -4 -4 -4 -3 -3 -3 -3 -3 -3 -3 -3 -3 -3 -2 -2 -2 -2 -2 -1
1 -0 -0 0 1 1 1 0 -0 0 -0 -1 -0 -0 -2 -3 -3 -3 -4 -4 -4 -4 -4 -5 -5 -5 -5 -4 -4 -4 -4 -4 -3 -4 -4 -4 -3 -3 -3 -3 -3 -3 -2 -2
0 -1 -0 1 1 -0 -1 -1 -1 -1 -1 -2 -1 -1 -3 -4 -4 -4 -4 -4 -4 -5 -5 -5 -5 -5 -5 -5 -5 -5 -5 -4 -4 -4 -4 -4 -4 -4 -4 -4 -3 -3 -3 -3
0 -2 -0 1 1 -1 -1 -2 -2 -2 -2 -2 -2 -2 -3 -4 -5 -5 -5 -5 -5 -5 -6 -6 -6 -6 -6 -6 -6 -6 -5 -5 -5 -5 -5 -5 -5 -5 -4 -4 -4 -4 -3 -3
-1 -2 -2 -2 -1 -1 -2 -2 -2 -2 -2 -2 -2 -3 -3 -4 -5 -5 -5 -6 -6 -6 -6 -6 -7 -7 -7 -7 -6 -6 -6 -6 -6 -6 -5 -5 -5 -5 -5 -5 -4 -4 -4 -4
-2 -3 -3 -3 -2 -2 -2 -2 -2 -2 -3 -3 -3 -3 -4 -4 -5 -5 -6 -6 -7 -7 -7 -7 -7 -7 -7 -7 -7 -7 -6 -6 -6 -6 -6 -6 -6 -6 -6 -5 -5 -5 -5 -4
-3 -3 -3 -3 -3 -2 -3 -3 -3 -3 -4 -4 -3 -3 -5 -6 -6 -6 -6 -6 -7 -7 -7 -7 -7 -8 -8 -8 -7 -7 -7 -7 -7 -7 -7 -7 -6 -6 -6 -6 -6 -6 -5 -5
-4 -4 -4 -4 -3 -3 -2 -4 -4 -4 -5 -6 -5 -6 -6 -6 -6 -5 -5 -6 -6 -7 -7 -7 -8 -8 -8 -8 -8 -8 -8 -8 -7 -7 -7 -7 -7 -7 -7 -7 -6 -6 -6 -6
-4 -4 -4 -4 -4 -4 -4 -4 -6 -5 -6 -6 -6 -6 -7 -7 -7 -7 -6 -6 -6 -7 -7 -8 -8 -8 -9 -9 -8 -8 -8 -8 -8 -8 -8 -8 -8 -8 -8 -7 -7 -7 -7 -7
-5 -5 -5 -5 -4 -3 -3 -6 -6 -5 -6 -6 -7 -7 -7 -8 -8 -7 -7 -7 -7 -8 -8 -8 -9 -9 -9 -9 -9 -9 -9 -9 -9 -9 -9 -9 -9 -9 -8 -8 -8 -8 -8 -8
-5 -6 -5 -5 -5 -5 -6 -7 -6 -5 -5 -6 -7 -7 -7 -8 -8 -7 -8 -8 -8 -8 -9 -9 -9 -10 -10 -10 -10 -10 -10 -10 -10 -10 -10 -9 -9 -9 -9 -9 -9 -9 -9 -9
-6 -6 -6 -6 -5 -5 -8 -7 -7 -6 -7 -7 -7 -7 -8 -8 -8 -8 -8 -9 -9 -9 -9 -10 -10 -10 -10 -11 -11 -11 -10 -10 -10 -10 -10 -10 -10 -10 -10 -10 -10 -10 -10 -9
-7 -7 -7 -6 -6 -7 -8 -7 -7 -7 -7 -7 -8 -8 -8 -9 -9 -9 -9 -9 -10 -10 -10 -10 -11 -11 -11 -11 -11 -11 -11 -11 -11 -11 -11 -11 -11 -10 -11 -11 -11 -10 -10 -10
-8 -9 -8 -9 -9 -9 -8 -8 -7 -7 -8 -8 -8 -9 -9 -9 -9 -10 -10 -10 -10 -11 -11 -11 -11 -11 -11 -12 -12 -12 -12 -12 -12 -12 -12 -11 -11 -11 -11 -11 -11 -11 -11 -11
-8 -9 -9 -9 -9 -9 -8 -8 -8 -8 -9 -9 -9 -9 -10 -10 -10 -10 -11 -11 -11 -11 -12 -12 -12 -12 -12 -12 -12 -12 -12 -12 -12 -12 -12 -12 -12 -12 -12 -12 -12 -12 -12 -12
-11 -10 -9 -8 -9 -9 -9 -8 -9 -9 -9 -10 -10 -10 -10 -11 -11 -11 -11 -12 -12 -12 -12 -12 -12 -13 -13 -13 -13 -13 -13 -13 -13 -13 -13 -13 -13 -13 -12 -12 -12 -12 -12 -12
Wind_Speed
1 3 4 7 8 5 4 5 6 6 3 3 7 7 5 5 4 4 3 3 2 2 1 2 2 2 3 4 4 3 3 3 3 2 2 1 0 0 1 1 1 3 3 4
3 4 7 5 3 4 4 5 5 5 2 3 5 7 4 5 5 4 4 3 2 1 1 1 2 2 2 2 2 2 2 2 2 1 1 0 0 0 0 1 1 1 3 3
6 4 3 3 2 4 5 7 6 4 3 1 1 4 4 3 3 2 2 2 2 3 3 2 2 2 2 1 1 0 1 1 2 2 2 2 1 1 1 1 0 0 1 2
4 3 2 2 4 4 7 6 5 4 1 3 3 5 6 5 3 2 2 1 1 1 2 2 2 2 1 0 0 0 1 1 1 2 2 2 1 1 2 2 1 1 1 1
4 2 2 4 5 5 6 4 5 4 3 3 3 5 6 4 5 5 5 4 2 2 2 2 2 2 1 1 1 0 1 1 1 1 1 2 1 1 1 1 1 1 1 1
3 2 3 4 4 4 1 1 1 1 2 5 7 7 6 5 6 5 5 4 2 1 1 1 2 2 2 3 3 1 1 1 1 0 1 1 1 1 1 1 2 2 2 1
3 3 2 1 1 1 2 3 1 2 2 7 4 5 6 3 4 5 6 4 3 2 2 2 2 2 2 2 3 2 1 1 1 0 1 1 2 2 3 3 3 3 2 2
3 5 3 2 4 3 4 5 5 5 5 5 2 6 4 1 1 3 3 3 3 2 1 1 1 1 1 1 2 2 1 2 2 1 1 2 1 2 2 3 3 4 3 4
4 5 1 2 2 5 4 4 4 3 2 3 5 4 4 1 1 2 3 3 2 2 1 1 1 1 1 1 2 2 1 2 2 2 2 2 2 2 3 3 3 3 3 3
4 4 3 2 1 1 3 5 3 3 3 5 5 4 4 5 5 3 3 2 2 1 1 0 0 1 1 1 2 1 1 1 2 2 2 2 2 2 3 3 3 4 4 3
3 3 3 1 3 5 3 3 3 3 3 4 4 6 3 7 7 6 5 4 3 2 1 0 0 1 1 1 1 2 2 2 2 2 2 2 2 3 2 3 3 4 4 4
2 3 4 6 3 2 4 5 5 4 4 4 4 6 1 4 4 4 3 2 2 1 0 0 1 1 1 2 1 2 2 2 2 2 2 2 2 2 3 3 3 4 4 4
3 4 1 3 2 1 1 3 4 3 3 4 5 6 1 2 1 2 2 2 2 1 1 1 1 1 1 2 2 2 2 3 3 2 2 3 3 3 3 4 4 4 3 4
4 4 6 8 5 4 4 4 5 5 5 6 8 9 5 3 3 2 2 2 2 1 1 0 0 1 2 2 2 2 2 3 3 2 2 3 3 4 4 4 4 4 4 4
3 4 5 6 5 4 6 7 8 9 9 9 9 9 11 7 6 4 3 2 2 1 0 1 1 1 2 2 3 3 3 3 3 2 3 3 4 4 4 4 4 4 4 4
3 3 2 4 4 4 6 8 10 11 9 10 9 11 7 3 2 2 3 3 3 2 2 1 1 2 2 3 3 4 4 3 3 3 3 4 4 4 4 4 4 4 4 4
4 4 2 4 4 4 7 9 10 6 5 7 11 10 2 1 3 4 4 4 4 3 2 2 2 3 3 3 3 3 4 3 3 3 4 4 4 4 4 4 4 4 4 4
5 5 3 1 2 7 7 1 4 5 5 5 5 3 3 3 2 2 4 5 4 3 3 2 2 3 3 3 3 3 3 3 3 4 4 5 4 5 5 5 5 5 4 4
4 6 3 2 3 7 5 2 3 4 5 4 6 4 2 1 2 2 2 3 3 3 2 2 2 2 2 3 3 3 3 3 4 4 5 5 5 5 5 5 5 5 5 5
2 3 4 3 4 7 5 1 1 3 4 3 4 4 3 2 1 3 1 0 1 1 0 0 1 2 2 3 3 3 3 4 5 6 6 5 5 5 5 6 6 5 5 5
2 2 5 6 7 7 4 2 2 4 5 1 2 3 3 4 4 2 0 1 1 0 0 0 0 1 2 2 2 3 4 5 5 6 6 6 5 5 5 5 5 5 5 5
6 5 6 5 6 8 2 4 6 5 0 1 1 1 2 2 1 1 1 1 1 1 1 1 1 2 2 2 2 4 5 6 6 6 6 6 6 6 5 5 5 5 5 5
5 6 5 7 6 2 3 4 2 1 2 1 1 1 1 2 2 2 1 1 1 1 1 1 1 2 3 2 2 4 5 6 6 6 6 6 6 6 6 5 5 5 4 4
3 1 3 3 5 3 2 1 1 1 1 1 0 0 1 2 2 2 2 1 1 1 1 2 2 2 3 4 4 4 5 5 5 6 6 6 6 6 6 5 5 4 4 4
3 3 3 4 3 2 2 2 1 1 2 1 1 1 0 1 2 2 2 1 1 2 2 2 2 3 4 4 4 5 5 5 5 6 6 6 6 6 5 6 5 6 5 6
2 4 5 5 4 3 3 1 1 2 1 0 1 1 1 1 2 1 2 1 1 2 2 2 3 3 4 4 5 5 5 4 5 6 6 5 5 5 5 6 7 9 10 12
Wind_Direction
109 105 201 215 209 211 199 210 241 247 251 222 226 238 229 199 180 183 185 184 179 175 158 117 91 74 65 51 47 41 62 63 70 77 83 91 57 52 47 67 88 130 136 143
71 229 230 217 216 214 221 233 250 273 261 229 235 248 224 195 191 183 179 185 179 162 78 107 102 88 82 73 51 52 46 59 60 52 48 68 137 283 341 47 84 119 142 151
194 234 224 193 212 215 231 224 232 246 303 270 244 274 216 191 147 127 134 169 162 169 175 164 140 122 103 79 69 57 23 34 41 50 60 56 47 33 5 328 317 303 182 172
224 257 232 203 222 211 241 233 235 228 222 256 185 262 235 196 191 193 200 200 193 180 174 162 140 135 145 139 104 147 121 48 38 71 108 126 142 243 269 269 258 289 239 186
233 218 205 223 232 212 233 240 239 226 203 263 219 225 261 174 213 223 218 217 219 201 163 165 162 155 103 48 52 97 105 68 41 92 144 159 203 291 289 295 269 269 287 191
239 243 207 223 243 213 215 35 9 74 127 247 215 201 257 204 215 214 210 212 209 186 106 89 82 77 55 37 25 29 91 36 15 87 175 187 213 272 282 280 266 262 280 236
286 273 254 199 220 355 86 96 9 314 250 244 198 206 246 213 211 191 191 199 184 143 113 89 76 70 51 28 12 4 17 354 337 315 266 250 228 218 225 234 238 244 266 269
222 265 233 198 189 200 205 169 182 225 238 271 246 230 248 234 176 139 151 161 146 135 128 103 66 59 33 3 351 346 341 327 307 276 265 273 267 241 244 245 244 237 241 250
200 248 296 239 200 166 176 198 182 166 250 262 252 270 294 84 91 114 123 128 155 162 148 132 65 41 7 333 320 313 323 316 303 288 272 268 269 272 272 271 267 256 254 266
170 243 270 297 35 179 172 155 123 165 222 256 269 252 239 219 223 202 183 191 212 192 152 139 86 4 347 334 330 335 325 306 303 302 288 289 279 275 276 276 266 269 267 270
162 192 283 303 207 202 167 170 166 182 203 207 261 261 222 203 199 195 204 203 200 201 208 220 314 335 343 350 0 348 335 338 339 331 313 302 288 284 282 275 272 268 267 268
153 154 243 249 254 223 187 185 162 186 234 215 234 265 286 190 185 181 191 200 189 176 159 48 359 1 5 354 346 339 332 335 329 324 320 310 306 297 291 286 278 272 266 271
145 149 272 314 300 349 210 208 181 166 171 201 216 259 1 99 124 169 177 198 190 156 109 39 26 6 347 338 327 323 327 325 325 325 325 318 319 314 303 297 293 283 278 285
146 177 200 219 227 190 228 236 201 175 206 228 231 249 263 251 237 234 207 201 178 166 161 150 339 326 326 328 326 316 320 324 325 321 318 311 310 306 303 302 300 295 285 280
142 214 235 255 260 224 235 237 216 212 216 221 238 240 252 240 225 217 200 181 168 169 211 237 274 305 317 322 324 325 325 328 328 322 316 309 309 310 310 311 309 304 296 289
161 203 231 269 262 253 264 256 234 233 233 234 249 263 259 254 174 183 196 193 204 222 238 255 281 295 297 304 313 321 321 323 324 315 312 315 316 315 314 312 310 310 305 304
181 174 194 261 285 318 271 244 221 217 215 208 233 245 229 198 216 213 208 204 217 236 248 257 269 277 289 297 306 306 311 317 323 320 318 319 314 313 311 312 315 309 304 303
172 166 184 255 19 243 248 234 198 209 247 232 234 236 212 215 252 245 201 193 215 234 242 256 271 293 307 314 322 319 322 324 322 321 319 319 316 312 314 313 310 306 300 296
183 168 173 184 240 270 281 245 176 193 266 239 220 236 231 107 26 320 216 189 218 232 237 252 275 300 316 322 325 330 331 330 326 320 316 314 310 307 310 308 305 300 298 298
83 143 167 183 217 244 247 247 219 122 278 253 196 207 196 138 246 258 207 4 303 333 324 276 332 338 325 323 335 336 327 326 322 318 315 311 306 301 300 299 299 300 300 298
139 173 202 213 232 257 254 244 131 177 247 253 183 196 181 200 222 240 336 332 301 305 11 59 10 322 311 323 336 329 325 318 315 317 317 317 314 307 300 299 301 302 302 303
184 185 200 191 220 251 209 147 185 211 113 133 173 186 189 211 236 259 289 311 339 8 14 22 348 321 321 329 332 322 317 316 318 318 317 316 315 313 312 307 305 304 301 299
201 199 193 197 215 260 166 183 209 146 159 197 196 247 193 220 246 264 284 303 324 344 345 343 329 323 326 326 322 310 311 318 318 318 316 313 314 314 314 307 303 303 299 296
245 197 185 236 261 259 244 260 311 160 169 155 164 237 184 221 255 271 286 303 333 333 330 339 335 324 318 318 313 303 312 322 320 315 315 315 314 314 314 310 303 298 296 294
231 178 199 240 268 317 292 235 222 85 77 69 32 33 208 222 274 274 283 294 305 315 321 317 307 304 304 310 310 314 320 324 320 315 314 313 313 309 309 307 298 298 285 285
211 192 199 232 224 204 242 261 113 129 129 81 40 2 355 297 276 288 289 295 297 303 307 308 306 303 304 307 307 310 313 314 314 316 317 314 312 311 310 310 309 302 302 302
Height
1489 1494 1495 1494 1494 1495 1496 1498 1499 1496 1494 1496 1496 1496 1497 1497 1498 1499 1499 1499 1499 1499 1500 1500 1500 1501 1501 1501 1501 1502 1502 1503 1504 1505 1505 1506 1508 1509 1510 1511 1512 1513 1514 1515
1493 1494 1490 1491 1492 1493 1495 1497 1497 1495 1494 1495 1496 1496 1495 1495 1496 1497 1497 1497 1497 1497 1498 1498 1498 1498 1499 1499 1499 1500 1499 1500 1501 1502 1503 1504 1505 1506 1508 1509 1509 1510 1511 1512
1491 1490 1488 1490 1492 1493 1494 1496 1496 1496 1495 1494 1497 1496 1495 1495 1496 1496 1496 1495 1495 1495 1495 1495 1496 1496 1496 1497 1497 1498 1498 1498 1498 1499 1500 1501 1502 1503 1504 1505 1506 1507 1508 1509
1491 1489 1489 1490 1491 1491 1492 1491 1492 1493 1498 1499 1498 1499 1492 1494 1495 1495 1494 1494 1493 1493 1493 1493 1493 1494 1495 1495 1496 1496 1496 1496 1496 1497 1497 1497 1498 1498 1499 1501 1502 1503 1505 1506
1490 1489 1489 1490 1489 1489 1490 1489 1491 1492 1496 1500 1498 1500 1490 1492 1493 1493 1492 1492 1491 1491 1491 1491 1491 1492 1493 1493 1493 1493 1494 1494 1494 1494 1494 1495 1495 1496 1496 1498 1499 1500 1501 1502
1489 1487 1487 1487 1487 1487 1488 1490 1492 1495 1498 1497 1491 1496 1487 1491 1487 1488 1489 1489 1489 1489 1489 1489 1489 1490 1490 1491 1491 1491 1491 1491 1492 1492 1492 1492 1492 1492 1493 1494 1495 1496 1497 1498
1490 1488 1486 1486 1487 1488 1489 1495 1500 1498 1499 1491 1486 1489 1486 1485 1483 1483 1485 1486 1487 1487 1487 1487 1487 1487 1488 1488 1488 1489 1489 1489 1489 1489 1489 1489 1489 1489 1489 1490 1490 1491 1492 1493
1493 1490 1486 1485 1486 1488 1489 1492 1497 1497 1496 1492 1488 1486 1485 1484 1482 1482 1483 1484 1485 1485 1485 1485 1485 1485 1485 1485 1486 1486 1486 1486 1486 1486 1486 1486 1486 1486 1486 1486 1487 1487 1488 1489
1492 1488 1485 1484 1483 1485 1488 1491 1492 1498 1498 1499 1489 1489 1486 1484 1483 1483 1483 1483 1483 1483 1483 1484 1484 1484 1484 1483 1483 1483 1483 1483 1483 1483 1483 1483 1483 1483 1482 1483 1483 1484 1484 1485
1489 1492 1487 1485 1484 1484 1486 1488 1496 1497 1496 1493 1487 1488 1484 1483 1483 1482 1482 1482 1481 1482 1482 1482 1482 1481 1481 1481 1481 1481 1481 1480 1480 1480 1479 1479 1479 1479 1479 1479 1479 1479 1480 1480
1488 1492 1490 1488 1487 1485 1487 1489 1491 1495 1495 1495 1493 1483 1477 1477 1477 1479 1479 1479 1480 1480 1479 1480 1480 1480 1479 1479 1478 1478 1478 1477 1477 1477 1476 1476 1475 1475 1475 1475 1475 1475 1475 1475
1487 1492 1494 1489 1485 1484 1485 1487 1490 1493 1494 1495 1493 1485 1475 1475 1475 1476 1477 1478 1479 1479 1478 1478 1478 1478 1477 1476 1476 1475 1475 1474 1474 1474 1473 1473 1472 1471 1471 1470 1470 1470 1470 1471
1486 1492 1493 1487 1488 1487 1487 1487 1488 1491 1494 1496 1494 1484 1476 1475 1475 1475 1476 1476 1477 1477 1477 1476 1476 1475 1474 1474 1473 1472 1472 1471 1471 1470 1470 1469 1468 1468 1467 1466 1466 1466 1465 1466
1483 1489 1488 1482 1478 1483 1486 1486 1486 1489 1492 1492 1485 1478 1476 1476 1475 1475 1475 1475 1475 1475 1475 1474 1474 1473 1472 1471 1470 1470 1469 1468 1468 1467 1466 1465 1465 1464 1463 1462 1462 1461 1461 1461
1482 1487 1486 1482 1480 1481 1481 1481 1482 1484 1482 1482 1477 1476 1471 1472 1472 1472 1473 1473 1473 1473 1473 1472 1471 1470 1469 1469 1468 1467 1466 1465 1465 1464 1462 1461 1461 1460 1459 1458 1457 1456 1456 1456
1482 1486 1485 1484 1481 1481 1480 1477 1476 1476 1477 1476 1474 1472 1467 1468 1469 1470 1471 1471 1471 1470 1470 1469 1469 1468 1467 1466 1465 1464 1463 1462 1461 1461 1460 1459 1458 1456 1455 1454 1453 1452 1451 1451
1482 1485 1486 1483 1482 1479 1478 1472 1471 1472 1471 1471 1470 1467 1466 1468 1467 1467 1468 1468 1468 1468 1468 1467 1466 1465 1464 1463 1462 1461 1460 1459 1458 1457 1456 1455 1454 1453 1451 1450 1448 1447 1446 1446
1480 1482 1485 1486 1485 1483 1469 1467 1467 1468 1469 1468 1466 1465 1465 1465 1465 1465 1465 1465 1465 1465 1465 1464 1463 1462 1461 1460 1459 1458 1457 1456 1455 1454 1453 1452 1451 1449 1447 1446 1444 1443 1442 1441
1475 1478 1484 1486 1486 1476 1469 1466 1468 1469 1468 1465 1464 1464 1464 1465 1464 1464 1463 1463 1463 1463 1462 1462 1461 1460 1458 1457 1456 1455 1454 1452 1451 1450 1449 1448 1447 1445 1443 1442 1440 1439 1438 1436
1475 1476 1481 1483 1481 1473 1464 1465 1464 1467 1468 1462 1462 1462 1463 1463 1466 1463 1462 1461 1461 1460 1459 1459 1458 1457 1456 1455 1454 1452 1451 1450 1448 1447 1446 1445 1443 1442 1440 1438 1436 1435 1433 1432
1478 1479 1480 1480 1478 1469 1465 1464 1465 1469 1463 1461 1460 1460 1461 1462 1462 1461 1459 1459 1458 1458 1457 1456 1455 1454 1453 1451 1450 1449 1448 1447 1446 1444 1443 1441 1440 1438 1436 1434 1433 1431 1429 1427
1474 1476 1477 1477 1476 1469 1463 1463 1464 1461 1459 1459 1459 1459 1459 1459 1458 1458 1457 1456 1456 1455 1454 1453 1452 1451 1450 1449 1447 1446 1445 1444 1442 1441 1439 1438 1436 1434 1433 1431 1429 1427 1425 1423
1471 1469 1468 1469 1466 1461 1459 1458 1458 1458 1458 1458 1458 1458 1457 1457 1456 1456 1455 1454 1453 1452 1451 1450 1449 1448 1447 1446 1445 1443 1442 1440 1439 1437 1435 1434 1432 1431 1429 1427 1425 1423 1421 1419
1467 1465 1466 1466 1461 1459 1458 1457 1457 1457 1457 1457 1457 1456 1455 1455 1454 1453 1452 1452 1451 1450 1449 1448 1447 1445 1444 1443 1442 1441 1439 1437 1435 1434 1432 1430 1428 1426 1425 1423 1421 1419 1417 1415
1463 1464 1464 1463 1459 1458 1456 1456 1456 1456 1456 1455 1455 1454 1454 1453 1452 1451 1450 1449 1448 1447 1446 1445 1444 1443 1441 1440 1439 1438 1436 1434 1432 1431 1429 1427 1425 1423 1421 1419 1417 1415 1414 1412
1460 1461 1461 1457 1455 1456 1455 1454 1455 1454 1454 1454 1453 1452 1452 1451 1450 1449 1448 1447 1446 1445 1444 1443 1442 1440 1439 1438 1436 1435 1433 1431 1429 1427 1425 1423 1421 1419 1417 1415 1413 1411 1409 1407